Home > Weather > Walnut Creek > Past weeks

Flag for USA Past Weather in Walnut Creek, California, USA — Yesterday and Last 2 Weeks

Now
56 °F

Clear.


Feels Like: 53 °F
Forecast: 54 / 65 °F
Wind: 12 mph from Southwest

Location: Buchanan Field

Current Time: May 24, 2016 at 4:50:04 AM

Latest Report: May 24, 2016 at 3:53 AM


Visibility: 10 mi

Pressure: 29.84 "Hg

Humidity: 77%

Dew Point: 49 °F

Location of Walnut CreekLocation

Past Weather in Walnut Creek — Graph

°F

Walnut Creek Temperature Yesterday

Maximum temperature yesterday: 73 °F (at 2:53 PM)
Minimum temperature yesterday: 53 °F (at 3:53 AM)
Average temperature yesterday: 62 °F

High & Low Weather Summary for the Past Weeks

 TemperatureHumidityPressure
High94 °F (May 18, 2:53 PM)86% (May 10, 4:53 AM)30.11 "Hg (May 10, 4:53 AM)
Low49 °F (May 22, 5:53 AM)16% (May 17, 2:53 PM)29.68 "Hg (May 19, 8:53 PM)
Average64 °F57%29.91 "Hg
* Reported May 9 2:53 AM — May 24 2:53 AM, Walnut Creek, Weather by CustomWeather, © 2016

Note: Actual official high and low records may vary slightly from our data, if they occured in-between our weather recording intervals... More about our weather records

Advertising

Walnut Creek Weather History for the Previous 24 Hours

Scroll right to see more
 ConditionsComfort  
Time TempWeatherWind HumidityBarometerVisibility
2:53 AM
Tue, May 24
56 °FClear.13 mph77%29.84 "Hg10 mi
1:53 AM56 °FClear.13 mph75%29.85 "Hg10 mi
12:53 AM57 °FClear.9 mph74%29.85 "Hg10 mi
11:53 PM
Mon, May 23
57 °FPassing clouds.9 mph74%29.86 "Hg10 mi
10:53 PM59 °FOvercast.9 mph69%29.87 "Hg10 mi
9:53 PM59 °FOvercast.9 mph72%29.86 "Hg10 mi
8:53 PM60 °FPartly sunny.N/A69%29.85 "Hg10 mi
7:53 PM63 °FBroken clouds.10 mph63%29.84 "Hg10 mi
6:53 PM65 °FPartly sunny.9 mph59%29.84 "Hg10 mi
5:53 PM68 °FOvercast.16 mph49%29.85 "Hg10 mi
4:53 PM70 °FScattered clouds.14 mph44%29.85 "Hg10 mi
3:53 PM72 °FPassing clouds.14 mph43%29.86 "Hg10 mi
2:53 PM73 °FPassing clouds.10 mph40%29.86 "Hg10 mi
1:53 PM72 °FSunny.13 mph37%29.87 "Hg10 mi
12:53 PM72 °FScattered clouds.10 mph38%29.88 "Hg10 mi
11:53 AM70 °FSunny.9 mph39%29.89 "Hg10 mi
10:53 AM67 °FSunny.6 mph44%29.90 "Hg10 mi
9:53 AM63 °FSunny.5 mph52%29.91 "Hg10 mi
8:53 AM59 °FPartly sunny.6 mph64%29.92 "Hg10 mi
7:53 AM56 °FPartly sunny.9 mph72%29.93 "Hg10 mi
6:53 AM55 °FPartly sunny.8 mph74%29.93 "Hg10 mi
5:53 AM53 °FClear.9 mph74%29.92 "Hg10 mi
4:53 AM54 °FClear.7 mph72%29.92 "Hg10 mi
Weather by CustomWeather, © 2016

See weather overviewHow to use our weather pages